Weather History for KLIC - April, 2013

Change the Weather History Date:

Wednesday, April 24, 2013

  Actual Average Record
Temperature  
Mean Temperature 33 °F -  
Max Temperature 51 °F - 86 °F (2012)
Min Temperature 15 °F - 15 °F (2013)
Degree Days  
Heating Degree Days 32    
Month to date heating degree days 690  
Cooling Degree Days 0    
Month to date cooling degree days 0  
Moisture  
Dew Point 19 °F    
Average Humidity 58    
Maximum Humidity 92    
Minimum Humidity 24    
Precipitation  
Precipitation 0.00 in - 0.81 in (1997)
Month to date precipitation 0.40  
Year to date precipitation 2.50  
Sea Level Pressure  
Sea Level Pressure 30.23 in    
Wind  
Wind Speed 6 mph (NW)    
Max Wind Speed 20 mph    
Max Gust Speed 24 mph    
Visibility 10 miles    
Events      
T = Trace of Precipitation, MM = Missing Value Source: NWS Daily Summary

Daily Weather History Graph

Daily Weather History Graph

Search for Another Location

Airport or City:

Trip Planner

Search our weather history database for the weather conditions in past years. The results will help you decide how hot, cold, wet, or windy it might be!

Date:

Astronomy

Apr. 24, 2013 Rise Set
Actual Time 6:04 AM MDT 7:41 PM MDT
Civil Twilight 5:36 AM MDT 8:09 PM MDT
Nautical Twilight 5:02 AM MDT 8:44 PM MDT
Astronomical Twilight 4:25 AM MDT 9:20 PM MDT
Moon 6:47 PM MDT (4/24) 5:09 AM MDT (4/24)
Length of Visible Light 14h 33m
Length of Day
13h 36m
Waxing Gibbous, 98% of the Moon is Illuminated
Apr 24
Waxing Gibbous
Apr 25
Full
May 2
Last Quarter
May 9
New
May 17
First Quarter

Hourly Weather History & Observations

Time (MDT) Temp. Windchill Dew Point Humidity Pressure Visibility Wind Dir Wind Speed Gust Speed Precip Events Conditions
12:55 AM 17.1 °F 10.0 °F 15.1 °F 92% 30.30 in 10.0 mi NNW 4.6 mph - N/A   Clear
1:55 AM 16.0 °F - 14.0 °F 92% 30.29 in 10.0 mi Calm Calm - N/A   Clear
2:55 AM 16.0 °F 7.4 °F 14.0 °F 92% 30.28 in 10.0 mi North 5.8 mph - N/A   Clear
3:55 AM 17.1 °F 10.0 °F 14.0 °F 88% 30.27 in 10.0 mi NNW 4.6 mph - N/A   Clear
4:55 AM 19.0 °F 13.9 °F 15.1 °F 85% 30.24 in 10.0 mi Variable 3.5 mph - N/A   Clear
5:55 AM 17.1 °F 10.0 °F 12.9 °F 84% 30.24 in 10.0 mi North 4.6 mph - N/A   Clear
6:55 AM 25.0 °F 17.1 °F 19.9 °F 81% 30.22 in 10.0 mi NNW 6.9 mph - N/A   Clear
7:55 AM 30.9 °F 25.2 °F 23.0 °F 72% 30.22 in 10.0 mi WNW 5.8 mph - N/A   Mostly Cloudy
8:55 AM 34.0 °F 26.6 °F 21.9 °F 61% 30.23 in 10.0 mi WSW 9.2 mph - N/A   Overcast
9:55 AM 37.0 °F 28.5 °F 21.9 °F 54% 30.22 in 10.0 mi SW 13.8 mph - N/A   Mostly Cloudy
10:55 AM 41.0 °F 32.5 °F 23.0 °F 49% 30.22 in 10.0 mi SW 17.3 mph - N/A   Clear
11:55 AM 45.0 °F 38.2 °F 23.0 °F 42% 30.22 in 10.0 mi SW 15.0 mph - N/A   Partly Cloudy
12:55 PM 46.9 °F - 15.1 °F 28% 30.21 in 10.0 mi Variable 3.5 mph 19.6 mph N/A   Mostly Cloudy
1:55 PM 50.0 °F - 16.0 °F 26% 30.21 in 10.0 mi West 11.5 mph 21.9 mph N/A   Scattered Clouds
2:55 PM 51.1 °F - 17.1 °F 26% 30.20 in 10.0 mi NNW 12.7 mph 17.3 mph N/A   Clear
3:55 PM 51.1 °F - 18.0 °F 27% 30.18 in 10.0 mi NNW 13.8 mph 20.7 mph N/A   Clear
4:55 PM 51.1 °F - 18.0 °F 27% 30.17 in 10.0 mi NW 9.2 mph - N/A   Clear
5:55 PM 50.0 °F - 17.1 °F 27% 30.18 in 10.0 mi NW 9.2 mph - N/A   Clear
6:55 PM 48.0 °F - 18.0 °F 30% 30.17 in 10.0 mi North 5.8 mph - N/A   Clear
7:55 PM 39.0 °F 33.4 °F 28.0 °F 65% 30.21 in 10.0 mi NE 8.1 mph - N/A   Clear
8:55 PM 34.0 °F - 27.0 °F 75% 30.25 in 10.0 mi Calm Calm - N/A   Clear
9:55 PM 30.9 °F - 26.1 °F 82% 30.27 in 10.0 mi Calm Calm - N/A   Clear
10:55 PM 30.9 °F - 25.0 °F 79% 30.25 in 10.0 mi Calm Calm - N/A   Clear
11:55 PM 25.0 °F 20.7 °F 23.0 °F 92% 30.24 in 10.0 mi NNE 3.5 mph - N/A   Clear